Location: Ariel
(45.9570°N, 122.5700°W)
Time: 19:30:13
(UTC-07:00)

Transit 2A Rocket - Pass Details

Date: 25 July 2019
Orbit: 590 x 913 km, 66.7° (Epoch: 21 August)

Event Time Altitude Azimuth Distance (km) Brightness Sun altitude
Exits shadow 03:52:24 23° 231° (SW) 1,794 6.3 -15.5°
Maximum altitude 03:56:09 63° 306° (NW) 951 5.4 -15.1°
Drops below altitude 10° 04:01:42 10° 28° (NNE) 2,401 8.9 -14.5°
Sets 04:04:04 0° 32° (NNE) 3,286 10.1 -14.3°
